This is the latest recevied weather packets stored in our database for station/object NI4CE-10. If no packets are shown the sender has not sent any weather packets the latest 10 day(s).
| Time | Temp. | Humidity | Pressure | Rain* | Wind** | Luminosity | Snow |
|---|---|---|---|---|---|---|---|
| 1788368275 | 32.78° C | 100% | 1017.5 hPa | 0 mm | - | - | - |
| 1788367975 | 32.78° C | 100% | 1017.5 hPa | 0 mm | - | - | - |
| 1788367675 | 35° C | 100% | 1017.6 hPa | 0 mm | - | - | - |
| 1788367375 | 35° C | 100% | 1017.7 hPa | 0 mm | - | - | - |
| 1788367212 | 32.22° C | 100% | 1017.8 hPa | 0.25 mm | - | - | - |
| 1788367075 | 32.22° C | 100% | 1017.8 hPa | 0.25 mm | - | - | - |
| 1788366775 | 30.56° C | 100% | 1017.7 hPa | 0.51 mm | - | - | - |
| 1788366694 | 31.11° C | 100% | 1017.7 hPa | 1.27 mm | - | - | - |
| 1788366475 | 31.11° C | 100% | 1017.7 hPa | 1.27 mm | - | - | - |
| 1788366175 | 32.78° C | 100% | 1017.7 hPa | 2.29 mm | - | - | - |
| 1788366086 | 33.89° C | 100% | 1017.7 hPa | 2.54 mm | - | - | - |
| 1788365875 | 33.89° C | 100% | 1017.7 hPa | 2.54 mm | - | - | - |
| 1788365575 | 33.33° C | 100% | 1017.8 hPa | 2.54 mm | - | - | - |
| 1788365473 | 32.22° C | 100% | 1017.9 hPa | 2.54 mm | - | - | - |
| 1788365275 | 32.22° C | 100% | 1017.9 hPa | 2.54 mm | - | - | - |
| 1788364975 | 33.33° C | 100% | 1018 hPa | 2.54 mm | - | - | - |
| 1788364871 | 31.11° C | 100% | 1018 hPa | 2.54 mm | - | - | - |
| 1788364675 | 31.11° C | 100% | 1018 hPa | 2.54 mm | - | - | - |
| 1788364376 | 30.56° C | 100% | 1017.9 hPa | 2.54 mm | - | - | - |
| 1788364076 | 31.11° C | 100% | 1018 hPa | 2.54 mm | - | - | - |
| 1788363776 | 32.78° C | 100% | 1017.9 hPa | 2.54 mm | - | - | - |
| 1788363636 | 31.67° C | 100% | 1018 hPa | 2.29 mm | - | - | - |
| 1788363476 | 31.67° C | 100% | 1018 hPa | 2.29 mm | - | - | - |
| 1788363176 | 28.89° C | 100% | 1018.1 hPa | 2.03 mm | - | - | - |
| 1788363086 | 28.89° C | 100% | 1018.1 hPa | 1.27 mm | - | - | - |
* Rain latest hour (hover to see other rain measurements)
** Current wind speed in m/s (hover to see current wind gust speed)